Terug naar catalogus

STARLINK-4040

ActiefCommunicatieVLEO
NORAD 53151·PAYLOAD·🇺🇸 United States

Gelanceerd Jul 17, 2022 vanaf Cape Canaveral Space Force Station

Loading…

Volgende Passages (komende 24 uur)

TLE

VersSource: CelesTrak SupGP

Epoch: Sep 14, 2026, 20:41 UTC

1 53151C 22083V   26257.86229167  .00016972  00000+0  48554-3 0  2573
2 53151  53.1591  23.1899 0001246  71.8793 284.1574 15.35392425    12

Volg STARLINK-4040 in realtime met AllMySat

Download on the App Store